TimeMST,TemperatureF,Dew PointF,Humidity,Sea Level PressureIn,VisibilityMPH,Wind Direction,Wind SpeedMPH,Gust SpeedMPH,PrecipitationIn,Events,Conditions,WindDirDegrees,DateUTC
12:53 AM,30.0,21.0,69,30.11,6.0,Calm,Calm,-,N/A,,Haze,0,2013-12-29 07:53:00
1:53 AM,30.0,21.0,69,30.12,8.0,Calm,Calm,-,N/A,,Clear,0,2013-12-29 08:53:00
2:53 AM,30.9,21.0,67,30.13,10.0,SE,3.5,-,N/A,,Clear,140,2013-12-29 09:53:00
3:53 AM,28.0,19.9,72,30.14,5.0,West,3.5,-,N/A,,Haze,280,2013-12-29 10:53:00
4:53 AM,28.0,21.0,75,30.16,10.0,South,3.5,-,N/A,,Clear,180,2013-12-29 11:53:00
5:53 AM,28.9,19.9,69,30.18,10.0,Calm,Calm,-,N/A,,Clear,0,2013-12-29 12:53:00
6:53 AM,28.9,19.9,69,30.21,10.0,Calm,Calm,-,N/A,,Clear,0,2013-12-29 13:53:00
7:53 AM,28.9,19.0,67,30.25,8.0,Calm,Calm,-,N/A,,Clear,0,2013-12-29 14:53:00
8:53 AM,34.0,19.0,54,30.26,10.0,Calm,Calm,-,N/A,,Clear,0,2013-12-29 15:53:00
9:53 AM,37.9,17.1,43,30.27,10.0,Calm,Calm,-,N/A,,Clear,0,2013-12-29 16:53:00
10:53 AM,39.9,16.0,38,30.28,10.0,WNW,4.6,-,N/A,,Clear,300,2013-12-29 17:53:00
11:53 AM,41.0,17.1,38,30.27,10.0,Calm,Calm,-,N/A,,Clear,0,2013-12-29 18:53:00
12:53 PM,43.0,17.1,35,30.24,10.0,Variable,3.5,-,N/A,,Clear,0,2013-12-29 19:53:00
1:53 PM,46.0,15.1,29,30.22,10.0,North,3.5,-,N/A,,Clear,350,2013-12-29 20:53:00
2:53 PM,46.0,16.0,30,30.21,10.0,SE,4.6,-,N/A,,Clear,140,2013-12-29 21:53:00
3:53 PM,46.0,16.0,30,30.22,10.0,Calm,Calm,-,N/A,,Clear,0,2013-12-29 22:53:00
4:53 PM,44.1,15.1,31,30.25,10.0,Calm,Calm,-,N/A,,Clear,0,2013-12-29 23:53:00
5:53 PM,39.0,15.1,38,30.26,10.0,SSE,4.6,-,N/A,,Clear,160,2013-12-30 00:53:00
6:53 PM,37.9,15.1,39,30.27,10.0,Calm,Calm,-,N/A,,Clear,0,2013-12-30 01:53:00
7:53 PM,35.1,15.1,44,30.29,10.0,Calm,Calm,-,N/A,,Clear,0,2013-12-30 02:53:00
8:53 PM,33.1,15.1,48,30.27,4.0,WNW,3.5,-,N/A,,Haze,300,2013-12-30 03:53:00
9:53 PM,33.1,14.0,46,30.26,5.0,West,3.5,-,N/A,,Haze,270,2013-12-30 04:53:00
10:53 PM,30.9,14.0,50,30.28,7.0,Calm,Calm,-,N/A,,Clear,0,2013-12-30 05:53:00
11:53 PM,30.0,14.0,51,30.29,9.0,WSW,3.5,-,N/A,,Clear,250,2013-12-30 06:53:00